Northeast Philadelphia, PA

5:13 PM EDT on July 26, 2017 (GMT -0400)
Northeast Philadelphia

Weather History for KPNE - August, 2013

Change the Weather History Date:

Thursday, August 8, 2013

  Actual Average Record
Temperature  
Mean Temperature 80 °F -  
Max Temperature 88 °F 83 °F 99 °F (2001)
Min Temperature 71 °F 65 °F 55 °F (1997)
Cooling Degree Days 14    
Growing Degree Days 30 (Base 50)    
Moisture  
Dew Point 71 °F    
Average Humidity 81    
Maximum Humidity 94    
Minimum Humidity 58    
Precipitation  
Precipitation 0.65 in - - ()
Sea Level Pressure  
Sea Level Pressure 30.05 in    
Wind  
Wind Speed 4 mph (SSW)    
Max Wind Speed 12 mph    
Max Gust Speed 21 mph    
Visibility 8 miles    
Events Rain , Thunderstorm    
Averages and records for this station are not official NWS values.
T = Trace of Precipitation, MM = Missing Value Source: NWS Daily Summary

Daily Weather History Graph

Daily Weather History Graph

Search for Another Location

Airport or City:

Trip Planner

Search our weather history database for the weather conditions in past years. The results will help you decide how hot, cold, wet, or windy it might be!

Date:

Astronomy

Aug. 08, 2013 Rise Set
Actual Time 6:05 AM EDT 8:05 PM EDT
Civil Twilight 5:35 AM EDT 8:35 PM EDT
Nautical Twilight 4:59 AM EDT 9:11 PM EDT
Astronomical Twilight 4:19 AM EDT 9:50 PM EDT
Moon 7:49 AM EDT (8/8) 8:42 PM EDT (8/8)
Length of Visible Light 14h 59m
Length of Day
14h 00m
Waxing Crescent, 3% of the Moon is Illuminated
Aug 8
Waxing Crescent
Aug 14
First Quarter
Aug 20
Full
Aug 28
Last Quarter
Sep 5
New

Hourly Weather History & Observations

Time (EDT) Temp. Heat Index Dew Point Humidity Pressure Visibility Wind Dir Wind Speed Gust Speed Precip Events Conditions
12:54 AM 73.0 °F - 69.1 °F 87% 30.07 in 10.0 mi Calm Calm - 0.01 in   Overcast
1:42 AM 71.6 °F - 69.8 °F 94% 30.08 in 1.5 mi SW 6.9 mph - 0.10 in Rain Heavy Rain
1:49 AM 71.6 °F - 69.8 °F 94% 30.07 in 1.0 mi SW 6.9 mph - 0.30 in Rain Heavy Rain
1:54 AM 72.0 °F - 69.1 °F 91% 30.06 in 0.8 mi SSE 4.6 mph - 0.46 in Rain Heavy Rain
1:59 AM 71.6 °F - 69.8 °F 94% 30.06 in 1.2 mi Variable 4.6 mph - 0.07 in Rain , Thunderstorm Rain
2:03 AM 71.6 °F - 69.8 °F 94% 30.06 in 3.0 mi Variable 4.6 mph - 0.08 in Rain , Thunderstorm Light Rain
2:10 AM 71.6 °F - 69.8 °F 94% 30.06 in 10.0 mi South 4.6 mph - 0.08 in Rain , Thunderstorm Light Rain
2:34 AM 71.6 °F - 69.8 °F 94% 30.06 in 10.0 mi Calm Calm - 0.08 in   Mostly Cloudy
2:54 AM 72.0 °F - 69.1 °F 91% 30.06 in 10.0 mi Calm Calm - 0.08 in   Mostly Cloudy
3:09 AM 71.6 °F - 69.8 °F 94% 30.05 in 7.0 mi Calm Calm - 0.00 in Rain Light Rain
3:19 AM 71.6 °F - 69.8 °F 94% 30.04 in 5.0 mi Variable 4.6 mph - 0.01 in Rain Light Rain
3:54 AM 72.0 °F - 69.1 °F 91% 30.04 in 10.0 mi Calm Calm - 0.01 in   Mostly Cloudy
4:39 AM 71.6 °F - 69.8 °F 94% 30.05 in 9.0 mi Calm Calm - N/A   Overcast
4:54 AM 73.0 °F - 70.0 °F 90% 30.04 in 9.0 mi South 3.5 mph - N/A   Overcast
5:45 AM 73.4 °F - 69.8 °F 88% 30.05 in 9.0 mi SSE 4.6 mph - N/A   Overcast
5:54 AM 73.0 °F - 70.0 °F 90% 30.05 in 9.0 mi Calm Calm - N/A   Overcast
6:54 AM 73.0 °F - 70.0 °F 90% 30.06 in 7.0 mi Calm Calm - N/A   Overcast
7:50 AM 73.4 °F - 71.6 °F 94% 30.06 in 8.0 mi SSW 4.6 mph - N/A   Overcast
7:54 AM 73.9 °F - 71.1 °F 91% 30.06 in 8.0 mi SSW 3.5 mph - N/A   Overcast
8:19 AM 75.2 °F - 71.6 °F 89% 30.07 in 8.0 mi Variable 3.5 mph - N/A   Overcast
8:35 AM 75.2 °F - 71.6 °F 89% 30.07 in 8.0 mi Calm Calm - N/A   Overcast
8:47 AM 75.2 °F - 71.6 °F 89% 30.07 in 8.0 mi SSW 3.5 mph - N/A   Overcast
8:54 AM 75.9 °F - 72.0 °F 87% 30.07 in 9.0 mi Calm Calm - N/A   Overcast
9:54 AM 79.0 °F - 73.0 °F 82% 30.07 in 10.0 mi SW 4.6 mph - N/A   Overcast
10:27 AM 80.6 °F 85.4 °F 73.4 °F 79% 30.06 in 10.0 mi SW 5.8 mph - N/A   Overcast
10:54 AM 82.0 °F 87.9 °F 73.9 °F 76% 30.06 in 10.0 mi Variable 4.6 mph - N/A   Mostly Cloudy
11:20 AM 82.4 °F 88.2 °F 73.4 °F 74% 30.06 in 10.0 mi SW 9.2 mph - N/A   Mostly Cloudy
11:41 AM 82.4 °F 88.2 °F 73.4 °F 74% 30.05 in 10.0 mi Variable 6.9 mph - N/A   Mostly Cloudy
11:54 AM 82.9 °F 88.8 °F 73.0 °F 72% 30.05 in 10.0 mi SSW 11.5 mph - N/A   Mostly Cloudy
12:16 PM 82.4 °F 87.2 °F 71.6 °F 70% 30.05 in 10.0 mi WSW 9.2 mph - N/A   Mostly Cloudy
12:28 PM 84.2 °F 89.6 °F 71.6 °F 66% 30.05 in 10.0 mi SW 10.4 mph - N/A   Mostly Cloudy
12:54 PM 84.0 °F 89.6 °F 72.0 °F 67% 30.04 in 10.0 mi SW 9.2 mph - N/A   Mostly Cloudy
1:01 PM 84.2 °F 89.6 °F 71.6 °F 66% 30.04 in 10.0 mi SSW 9.2 mph - N/A   Scattered Clouds
1:54 PM 84.9 °F 90.1 °F 71.1 °F 63% 30.04 in 10.0 mi SW 8.1 mph - N/A   Mostly Cloudy
2:54 PM 84.9 °F 90.7 °F 72.0 °F 65% 30.03 in 10.0 mi SW 11.5 mph 17.3 mph N/A   Overcast
3:16 PM 86.0 °F 91.8 °F 71.6 °F 62% 30.03 in 10.0 mi SW 11.5 mph 19.6 mph N/A Thunderstorm Mostly Cloudy
3:45 PM 87.8 °F 93.8 °F 71.6 °F 58% 30.02 in 10.0 mi SW 9.2 mph 17.3 mph N/A   Mostly Cloudy
3:54 PM 88.0 °F 94.7 °F 72.0 °F 59% 30.01 in 10.0 mi SSW 9.2 mph - N/A   Scattered Clouds
4:35 PM 78.8 °F - 69.8 °F 74% 30.01 in 1.8 mi SSW 8.1 mph 20.7 mph 0.07 in Rain Heavy Rain
4:42 PM 80.6 °F 84.6 °F 71.6 °F 74% 30.01 in 3.0 mi SSW 4.6 mph - 0.09 in Rain Light Rain
4:54 PM 81.0 °F 85.2 °F 72.0 °F 74% 30.01 in 10.0 mi Calm Calm - 0.09 in   Mostly Cloudy
5:54 PM 84.0 °F 90.2 °F 73.0 °F 69% 30.01 in 10.0 mi SSW 8.1 mph - N/A   Clear
6:54 PM 84.0 °F 89.6 °F 72.0 °F 67% 30.01 in 10.0 mi SSW 5.8 mph - N/A   Partly Cloudy
7:54 PM 82.0 °F 86.7 °F 72.0 °F 71% 30.02 in 10.0 mi South 4.6 mph - N/A   Partly Cloudy
8:54 PM 80.1 °F 83.8 °F 72.0 °F 76% 30.04 in 10.0 mi Variable 5.8 mph - N/A   Clear
9:54 PM 79.0 °F - 71.1 °F 77% 30.04 in 10.0 mi South 4.6 mph - N/A   Clear
10:54 PM 79.0 °F - 71.1 °F 77% 30.04 in 10.0 mi SSW 5.8 mph - N/A   Overcast
11:54 PM 78.1 °F - 71.1 °F 79% 30.03 in 10.0 mi South 4.6 mph - N/A   Mostly Cloudy